MXS YSSY-YSSY

Flight info

Callsign MXS
Flight time 0h 1m
Altitude 149996
Route DCT
Aircraft MXS/L-VGD/A

Departure

Time 2026-04-24 12:45
Airport Sydney Kingsford Smith International Airport (YSSY)

Arrival

Time 2026-04-24 12:46
Airport Sydney Kingsford Smith International Airport (YSSY)
Time Latitude Longitude Altitude Speed Heading
2026-04-24 12:42 -33.93386 151.18942 25 ft 0 kts 282°
2026-04-24 12:43 -33.93386 151.18937 25 ft 5 kts 255°
2026-04-24 12:43 -33.93468 151.18869 25 ft 17 kts 194°
2026-04-24 12:43 -33.93573 151.18856 25 ft 15 kts 144°
2026-04-24 12:43 -33.93664 151.18939 19 ft 18 kts 169°
2026-04-24 12:44 -33.93768 151.18943 20 ft 14 kts 251°
2026-04-24 12:44 -33.93993 151.18784 503 ft 78 kts 162°
2026-04-24 12:44 -33.94085 151.19369 446 ft 80 kts 50°
2026-04-24 12:44 -33.93696 151.19279 124 ft 73 kts 290°
2026-04-24 12:45 -33.93797 151.18767 20 ft 53 kts 251°
2026-04-24 12:45 -33.94070 151.18772 697 ft 84 kts 118°
2026-04-24 12:45 -33.93942 151.19378 332 ft 84 kts 24°
2026-04-24 12:45 -33.93747 151.18991 32 ft 54 kts 249°
2026-04-24 12:46 -33.93960 151.18770 531 ft 62 kts 133°
2026-04-24 12:46 -33.93991 151.19314 535 ft 76 kts 43°
2026-04-24 12:46 -33.93753 151.18971 37 ft 55 kts 255°
2026-04-24 12:46 -33.93894 151.18705 421 ft 39 kts 152°
2026-04-24 12:47 -33.93937 151.19202 268 ft 77 kts 26°
2026-04-24 12:47 -33.93787 151.18825 24 ft 57 kts 250°
2026-04-24 12:47 -33.93952 151.18650 694 ft 16 kts 164°
2026-04-24 12:47 -33.94134 151.19174 690 ft 88 kts 88°
2026-04-24 12:48 -33.93794 151.19260 117 ft 80 kts 287°
2026-04-24 12:48 -33.93871 151.18974 291 ft 113 kts 49°
2026-04-24 12:48 -33.93727 151.18891 467 ft 101 kts 218°
2026-04-24 12:48 -33.93803 151.19044 519 ft 92 kts
2026-04-24 12:49 -33.93863 151.19177 466 ft 112 kts 17°
2026-04-24 12:49 -33.93947 151.19151 433 ft 117 kts 63°
2026-04-24 12:49 -33.93784 151.18838 246 ft 118 kts 162°
2026-04-24 12:49 -33.93639 151.18995 171 ft 102 kts 233°
2026-04-24 12:50 -33.93625 151.19376 159 ft 89 kts 21°
2026-04-24 12:50 -33.93565 151.19410 244 ft 65 kts 239°
2026-04-24 12:50 -33.93770 151.18900 26 ft 53 kts 252°
2026-04-24 12:50 -33.93956 151.18873 485 ft 86 kts 73°
2026-04-24 12:51 -33.93681 151.19150 96 ft 63 kts 270°
2026-04-24 12:51 -33.93885 151.18764 471 ft 66 kts 173°
2026-04-24 12:51 -33.93964 151.19346 416 ft 80 kts 45°
2026-04-24 12:51 -33.93716 151.19126 90 ft 65 kts 249°
2026-04-24 12:52 -33.93837 151.18569 48 ft 82 kts 270°
2026-04-24 12:52 -33.94006 151.17845 76 ft 95 kts 264°
2026-04-24 12:52 -33.94189 151.17062 78 ft 98 kts 261°
2026-04-24 12:52 -33.94402 151.16278 205 ft 61 kts 234°
2026-04-24 12:53 -33.94600 151.16884 842 ft 134 kts 92°
2026-04-24 12:53 -33.94453 151.17990 779 ft 123 kts 74°
2026-04-24 12:53 -33.94249 151.18898 585 ft 99 kts 70°
2026-04-24 12:53 -33.93904 151.19354 222 ft 80 kts 359°
2026-04-24 12:54 -33.93775 151.18892 24 ft 60 kts 255°
2026-04-24 12:54 -33.93997 151.18581 494 ft 64 kts 139°
2026-04-24 12:54 -33.93984 151.19376 373 ft 99 kts 353°
2026-04-24 12:54 -33.93785 151.18875 29 ft 60 kts 252°
2026-04-24 12:55 -33.93840 151.18624 22 ft 14 kts 254°
2026-04-24 12:55 -33.93879 151.18448 24 ft 24 kts 255°
2026-04-24 12:55 -33.93878 151.18294 22 ft 18 kts 320°
2026-04-24 12:55 -33.93816 151.18258 22 ft 0 kts 343°
2026-04-24 12:56 -33.93812 151.18257 22 ft 0 kts
2026-04-24 12:58 -33.93811 151.18257 22 ft 0 kts
2026-04-24 12:59 -33.93809 151.18256 22 ft 0 kts 276°
2026-04-24 12:59 -33.93811 151.18255 22 ft 2 kts 164°
2026-04-24 12:59 -33.93812 151.18255 22 ft 0 kts 164°
2026-04-24 12:59 -33.93812 151.18256 22 ft 0 kts 164°
2026-04-24 13:00 -33.93813 151.18256 22 ft 0 kts 165°
2026-04-24 13:00 -33.93815 151.18256 22 ft 0 kts 164°
2026-04-24 13:05 -33.93830 151.18261 22 ft 7 kts 165°
2026-04-24 13:05 -33.93833 151.18262 22 ft 0 kts 163°
2026-04-24 13:06 -33.93843 151.18265 22 ft 3 kts 165°
2026-04-24 13:06 -33.93865 151.18273 22 ft 4 kts 164°
2026-04-24 13:06 -33.93867 151.18273 22 ft 0 kts 164°
2026-04-24 13:07 -33.93974 151.18277 45 ft 61 kts 182°
2026-04-24 13:07 -33.94117 151.18731 633 ft 87 kts 80°
2026-04-24 13:07 -33.94038 151.19357 523 ft 68 kts 77°
2026-04-24 13:07 -33.93946 151.19898 434 ft 64 kts 75°
2026-04-24 13:08 -33.93844 151.20408 577 ft 55 kts 55°
2026-04-24 13:08 -33.93647 151.20896 772 ft 71 kts 58°
2026-04-24 13:08 -33.93393 151.21447 782 ft 86 kts 67°
2026-04-24 13:09 -33.93365 151.20690 318 ft 166 kts 255°
2026-04-24 13:09 -33.93563 151.19688 179 ft 81 kts 271°
2026-04-24 13:09 -33.93715 151.19103 59 ft 72 kts 248°
2026-04-24 13:09 -33.93831 151.18618 22 ft 50 kts 255°
2026-04-24 13:10 -33.93980 151.17990 64 ft 91 kts 270°
2026-04-24 13:10 -33.94243 151.17398 433 ft 74 kts 154°
2026-04-24 13:10 -33.94463 151.18224 662 ft 144 kts 78°
2026-04-24 13:10 -33.94271 151.19216 590 ft 100 kts 76°
2026-04-24 13:11 -33.94148 151.19910 588 ft 78 kts 74°
2026-04-24 13:11 -33.94008 151.20546 664 ft 78 kts 73°
2026-04-24 13:11 -33.93854 151.21166 727 ft 79 kts 70°
2026-04-24 13:11 -33.93643 151.21781 737 ft 81 kts 37°
2026-04-24 13:12 -33.93291 151.21479 651 ft 85 kts 243°
2026-04-24 13:12 -33.93709 151.21687 853 ft 95 kts 89°
2026-04-24 13:12 -33.93280 151.22179 1175 ft 88 kts 13°
2026-04-24 13:12 -33.92627 151.22361 1250 ft 94 kts 13°
2026-04-24 13:13 -33.92349 151.22048 1239 ft 98 kts 220°
2026-04-24 13:13 -33.92155 151.22038 895 ft 91 kts 67°
2026-04-24 13:13 -33.92176 151.22920 989 ft 123 kts 124°
2026-04-24 13:13 -33.93001 151.22816 1059 ft 140 kts 247°
2026-04-24 13:14 -33.93135 151.21681 854 ft 131 kts 263°
2026-04-24 13:14 -33.93325 151.20732 549 ft 110 kts 255°
2026-04-24 13:14 -33.93564 151.19711 251 ft 129 kts 255°
2026-04-24 13:14 -33.93778 151.18849 35 ft 106 kts 256°
2026-04-24 13:15 -33.94087 151.17815 379 ft 136 kts 219°
2026-04-24 13:15 -33.94853 151.18108 530 ft 126 kts 105°
2026-04-24 13:15 -33.94587 151.19183 487 ft 121 kts 67°
2026-04-24 13:15 -33.94345 151.20226 550 ft 139 kts 79°
2026-04-24 13:16 -33.93806 151.20975 480 ft 125 kts 356°
2026-04-24 13:16 -33.93201 151.20448 629 ft 128 kts 245°
2026-04-24 13:16 -33.93603 151.19567 261 ft 118 kts 263°
2026-04-24 13:16 -33.93802 151.18740 20 ft 90 kts 257°
2026-04-24 13:17 -33.94075 151.18039 354 ft 95 kts 191°
2026-04-24 13:17 -33.94667 151.18283 418 ft 92 kts 133°
2026-04-24 13:17 -33.94550 151.19024 445 ft 93 kts 70°
2026-04-24 13:17 -33.94408 151.19727 586 ft 95 kts 72°
2026-04-24 13:18 -33.94103 151.20405 602 ft 84 kts 73°
2026-04-24 13:18 -33.93607 151.20594 573 ft 92 kts 340°
2026-04-24 13:18 -33.93458 151.19974 365 ft 106 kts 231°
2026-04-24 13:18 -33.93700 151.19189 151 ft 95 kts 258°
2026-04-24 13:19 -33.93867 151.18488 214 ft 84 kts 255°
2026-04-24 13:19 -33.94367 151.18444 374 ft 96 kts 153°
2026-04-24 13:19 -33.94417 151.19101 407 ft 90 kts 84°
2026-04-24 13:19 -33.94104 151.19634 408 ft 103 kts 350°
2026-04-24 13:20 -33.93726 151.19119 149 ft 81 kts 300°
2026-04-24 13:20 -33.93853 151.18561 132 ft 64 kts 231°
2026-04-24 13:20 -33.94338 151.18692 325 ft 81 kts 111°
2026-04-24 13:20 -33.94095 151.19272 332 ft 85 kts 358°
2026-04-24 13:21 -33.93769 151.18867 41 ft 83 kts 248°
2026-04-24 13:21 -33.93913 151.18299 100 ft 60 kts 257°
2026-04-24 13:21 -33.94347 151.18467 339 ft 117 kts 117°
2026-04-24 13:21 -33.94218 151.19274 251 ft 85 kts 78°
2026-04-24 13:22 -33.93932 151.19522 226 ft 63 kts 319°
2026-04-24 13:22 -33.93703 151.19211 78 ft 67 kts 256°
2026-04-24 13:22 -33.93826 151.18668 74 ft 63 kts 246°
2026-04-24 13:22 -33.94120 151.18792 364 ft 67 kts 82°
2026-04-24 13:23 -33.94050 151.19361 386 ft 70 kts 60°
2026-04-24 13:23 -33.94189 151.20003 400 ft 92 kts 95°
2026-04-24 13:23 -33.94137 151.20727 773 ft 87 kts 64°
2026-04-24 13:23 -33.93917 151.21452 916 ft 102 kts 67°
2026-04-24 13:24 -33.93668 151.22213 874 ft 94 kts 61°
2026-04-24 13:24 -33.93499 151.22590 703 ft 88 kts 38°
2026-04-24 13:24 -33.93120 151.23278 832 ft 131 kts 61°
2026-04-24 13:24 -33.92671 151.24507 800 ft 178 kts 64°
2026-04-24 13:25 -33.92566 151.23748 904 ft 194 kts 249°
2026-04-24 13:25 -33.92876 151.22573 771 ft 110 kts 254°
2026-04-24 13:25 -33.93061 151.21823 935 ft 86 kts 253°
2026-04-24 13:25 -33.93251 151.21065 1647 ft 107 kts 254°
2026-04-24 13:26 -33.93484 151.20083 1879 ft 108 kts 255°
2026-04-24 13:26 -33.93624 151.19679 1187 ft 50 kts 340°
2026-04-24 13:26 -33.93575 151.19426 286 ft 107 kts 235°
2026-04-24 13:26 -33.94065 151.18578 825 ft 124 kts 236°
2026-04-24 13:27 -33.94592 151.18665 1352 ft 142 kts 82°
2026-04-24 13:27 -33.94414 151.20023 1404 ft 178 kts 78°
2026-04-24 13:27 -33.94150 151.21528 1558 ft 192 kts 72°
2026-04-24 13:27 -33.93811 151.23117 1605 ft 199 kts 76°
2026-04-24 13:28 -33.93517 151.24649 2039 ft 193 kts 77°
2026-04-24 13:28 -33.93234 151.26269 2059 ft 201 kts 78°
2026-04-24 13:28 -33.93053 151.27373 2055 ft 203 kts 78°
2026-04-24 13:28 -33.93511 151.27576 1929 ft 208 kts 324°
2026-04-24 13:29 -33.93607 151.27647 1745 ft 208 kts 298°
2026-04-24 13:29 -33.93697 151.27810 1795 ft 199 kts 282°
2026-04-24 13:29 -33.93721 151.27878 1951 ft 194 kts 264°
2026-04-24 13:29 -33.92724 151.28201 1933 ft 193 kts 45°
2026-04-24 13:30 -33.91763 151.29364 1982 ft 201 kts 39°
2026-04-24 13:30 -33.90747 151.30521 2075 ft 202 kts 47°
2026-04-24 13:30 -33.89659 151.31594 2089 ft 205 kts 26°
2026-04-24 13:30 -33.88268 151.31920 1997 ft 211 kts 356°
2026-04-24 13:31 -33.88919 151.30732 1827 ft 213 kts 225°
2026-04-24 13:31 -33.89948 151.29432 1795 ft 214 kts 229°
2026-04-24 13:31 -33.90891 151.28069 1914 ft 210 kts 232°
2026-04-24 13:31 -33.91747 151.26767 2048 ft 144 kts 194°
2026-04-24 13:32 -33.92238 151.26634 1692 ft 8 kts 295°
2026-04-24 13:32 -33.92248 151.26422 930 ft 25 kts 263°
2026-04-24 13:32 -33.91689 151.26451 288 ft 69 kts
2026-04-24 13:32 -33.91582 151.26483 667 ft 32 kts 159°
2026-04-24 13:33 -33.91046 151.27100 136 ft 179 kts 346°
2026-04-24 13:33 -33.90131 151.27200 971 ft 32 kts 173°
2026-04-24 13:33 -33.91053 151.27147 366 ft 196 kts 181°
2026-04-24 13:33 -33.92084 151.26503 175 ft 206 kts 161°
2026-04-24 13:34 -33.91958 151.26468 330 ft 175 kts 336°
2026-04-24 13:34 -33.91433 151.26164 2060 ft 58 kts 124°
2026-04-24 13:34 -33.91353 151.26366 1415 ft 28 kts 221°
2026-04-24 13:34 -33.91569 151.26438 66 ft 163 kts 165°
2026-04-24 13:35 -33.91931 151.26539 699 ft 15 kts 97°
2026-04-24 13:35 -33.92204 151.27059 602 ft 46 kts 97°
2026-04-24 13:35 -33.92349 151.27382 1393 ft 15 kts 115°
2026-04-24 13:35 -33.92372 151.27227 1592 ft 91 kts 352°
2026-04-24 13:36 -33.91770 151.27490 1478 ft 45 kts 135°
2026-04-24 13:36 -33.91776 151.27548 1283 ft 8 kts 35°
2026-04-24 13:36 -33.91506 151.27524 287 ft 117 kts 355°
2026-04-24 13:36 -33.90570 151.27255 699 ft 148 kts 341°
2026-04-24 13:37 -33.90241 151.27327 522 ft 36 kts 68°
2026-04-24 13:37 -33.90096 151.27640 802 ft 19 kts 272°
2026-04-24 13:37 -33.90382 151.27571 541 ft 95 kts 234°
2026-04-24 13:37 -33.90425 151.27225 1392 ft 10 kts 82°
2026-04-24 13:38 -33.90615 151.27230 853 ft 75 kts 164°
2026-04-24 13:38 -33.91146 151.27424 1506 ft 16 kts 195°
2026-04-24 13:38 -33.91182 151.27271 872 ft 67 kts 261°
2026-04-24 13:38 -33.90844 151.27525 1005 ft 69 kts 339°
2026-04-24 13:39 -33.91271 151.27000 1897 ft 121 kts 231°
2026-04-24 13:39 -33.91764 151.26000 2292 ft 152 kts 249°
2026-04-24 13:39 -33.92191 151.24584 2029 ft 198 kts 251°
2026-04-24 13:39 -33.92635 151.22944 1978 ft 210 kts 255°
2026-04-24 13:40 -33.93113 151.21518 1916 ft 170 kts 253°
2026-04-24 13:40 -33.93472 151.20134 1993 ft 176 kts 253°
2026-04-24 13:40 -33.93713 151.19187 1899 ft 38 kts 307°
2026-04-24 13:40 -33.93813 151.19149 1108 ft 21 kts 13°
2026-04-24 13:41 -33.93795 151.19015 82 ft 93 kts 295°
2026-04-24 13:41 -33.93869 151.18480 25 ft 29 kts 256°
2026-04-24 13:41 -33.93896 151.18306 22 ft 14 kts 295°
2026-04-24 13:41 -33.93813 151.18257 22 ft 6 kts 346°
2026-04-24 13:42 -33.93806 151.18255 22 ft 3 kts 345°
2026-04-24 13:42 -33.93759 151.18245 24 ft 19 kts 11°
2026-04-24 13:42 -33.93696 151.18394 25 ft 21 kts 72°
2026-04-24 13:42 -33.93659 151.18546 25 ft 18 kts 76°
2026-04-24 13:43 -33.93627 151.18699 25 ft 21 kts 71°
2026-04-24 13:43 -33.93593 151.18863 25 ft 14 kts 92°
2026-04-24 13:43 -33.93636 151.18940 19 ft 3 kts 156°
2026-04-24 13:43 -33.93642 151.18943 19 ft 0 kts 160°